Terminal Aerodrome Forecast
Issued by NWS Columbia, SC

Home | Current Version | Previous Version | Text Only | Print | Product List | Glossary On
Versions: 1 2 3 4 5 6 7 8 9 10 11 12 13 14 15 16 17 18 19 20 21 22 23 24 25 26 27 28 29 30 31 32 33 34 35 36 37 38 39 40 41 42 43
000
FTAK31 PAJN 220540
TAFAGS
TAF
PAGS 220540Z 2206/2306 VRB03KT P6SM VCSH OVC060
     FM221800 15005KT P6SM VCSH SCT025 OVC040
      TEMPO 2219/2221 -RA BKN025 OVC040
     FM222100 18007KT P6SM -RA SCT025 OVC040
     FM230400 18004KT P6SM VCSH OVC040
      AMD LTD TO CLD VIS AND WIND=

USA.gov is the U.S. government's official web portal to all federal, state and local government web resources and services.